Home   Weather   Antioch   Past weeks
Flag for USA

Past Weather in Antioch, California, USA — Yesterday and Last 2 Weeks

Now
51 °F

Clear.


Feels Like: 51 °F
Forecast: 78 / 53 °F
Wind: 3 mph from South

Location: Buchanan Field

Current Time: Oct 20, 2019 at 7:24:33 am

Latest Report: Oct 20, 2019 at 6:53 am


Visibility: 10 mi

Pressure: 30.07 "Hg

Humidity: 86%

Dew Point: 47 °F

Location of AntiochLocation

Past Weather in Antioch — Graph

°F

Antioch Temperature Yesterday

Maximum temperature yesterday: 70 °F (at 10:53 am)
Minimum temperature yesterday: 54 °F (at 6:53 am)
Average temperature yesterday: 61 °F

High & Low Weather Summary for the Past Weeks

 TemperatureHumidityPressure
High90 °F (Oct 7, 3:53 pm)89% (Oct 20, 4:53 am)30.11 "Hg (Oct 20, 4:53 am)
Low45 °F (Oct 14, 5:53 am)8% (Oct 10, 2:53 pm)29.75 "Hg (Oct 8, 5:53 pm)
Average64 °F46%29.92 "Hg
* Reported Oct 5 5:53 am — Oct 20 5:53 am, Antioch. Weather by CustomWeather, © 2019

Note: Actual official high and low records may vary slightly from our data, if they occured in-between our weather recording intervals... More about our weather records

Advertising

Antioch Weather History for the Previous 24 Hours

Scroll right to see more
 ConditionsComfort  
Time TempWeatherWind HumidityBarometerVisibility
5:53 am
Sun, Oct 20
51 °FClear.No wind86%30.06 "Hg10 mi
4:53 am51 °FClear.3 mph89%30.05 "Hg10 mi
3:53 am53 °FClear.3 mph86%30.05 "Hg10 mi
2:53 am54 °FClear.5 mph86%30.05 "Hg10 mi
1:53 am54 °FClear.3 mph86%30.04 "Hg10 mi
12:53 am55 °FClear.5 mph83%30.03 "Hg10 mi
11:53 pm
Sat, Oct 19
56 °FClear.3 mph84%30.04 "Hg10 mi
10:53 pm57 °FClear.3 mph81%30.03 "Hg10 mi
9:53 pm58 °FClear.8 mph81%30.02 "Hg10 mi
8:53 pm59 °FClear.8 mph78%30.01 "Hg10 mi
7:53 pm60 °FClear.10 mph75%30.00 "Hg10 mi
6:53 pm63 °FClear.13 mph73%29.99 "Hg10 mi
5:53 pm66 °FSunny.14 mph68%29.98 "Hg10 mi
4:53 pm68 °FScattered clouds.14 mph65%29.98 "Hg10 mi
3:53 pm70 °FOvercast.14 mph61%30.00 "Hg10 mi
2:53 pm69 °FOvercast.10 mph61%30.00 "Hg10 mi
1:53 pm70 °FPartly sunny.10 mph57%30.01 "Hg10 mi
12:53 pm69 °FScattered clouds.12 mph55%30.02 "Hg10 mi
11:53 am70 °FOvercast.12 mph51%30.05 "Hg10 mi
10:53 am70 °FPartly sunny.13 mph51%30.06 "Hg10 mi
10:31 am67 °FScattered clouds.5 mph55%30.10 "Hg10 mi
9:53 am63 °FPartly sunny.9 mph58%30.04 "Hg10 mi
9:30 am61 °FPartly sunny.8 mph60%30.09 "Hg10 mi
8:53 am58 °FPassing clouds.12 mph65%30.04 "Hg10 mi
7:53 am55 °FSunny.10 mph72%30.04 "Hg10 mi
Weather by CustomWeather, © 2019

See weather overview